FENGYUN 1C DEB, 30414

Orbit data source: Space-Track

FENGYUN 1C DEB, 30414 is space debris in SSO originally from a launch on Mon, 10 May 1999 UTC launched from the Taiyaun Space Center, China (TSC). Fengyun 1C debris stems from the Chinese weather satellite Fengyun-1C, which was intentionally destroyed by a Chinese anti-satellite missile in 2007. This event dramatically increased the amount of space debris, with thousands of trackable fragments posing hazards to satellites and human spaceflight. The Fengyun 1C debris cloud has become a focal point in discussions about space sustainability and the need for international regulations to prevent the creation of new debris.

Loading next visibility...
Identifier
30414, 1999-025AED
Orbit
SSO
Country
Flag of CNCN / PRC
Related business
Manufacturer
Unknown
Mission
Spacecraft
Bus & Motor
Unknown
Mass
Unknown
Launch date (UTC)
1999-05-10 (27 years ago)
Launch vehicle
Unknown
Launch site
Taiyaun Space Center, China (TSC)
Object type
Payload
Rocket body
Debris
Shape & HBR
Unknown shape, 0.1 m
Radar Cross Section
Medium (>0.1 m² and <1 m²)

Expand to show TLE details & history
Last TLE update: 22 hours ago

TLE from 22 hours ago
0 FENGYUN 1C DEB
1 30414U 99025AED 26169.96308592  .00003070  00000-0  10452-2 0  9997
2 30414  99.0956 342.1687 0055201 359.7230   0.3914 14.36449411997879
Epoch: 2026-06-18T23:06Z
TLE epoch observation values (Epoch: 2026-06-18T23:06:50.623Z)
Latitude
-0.00009°
Longitude
88.25891°
Altitude
733.711 km
Speed
7.509 km/s
True Right ascension
22h 48m 40s
True Declination
0° 00' 00"
Sunlit
Object was in daylight at epoch
Visualization orbit readout
Latitude
Unknown
Longitude
Unknown
Altitude
Unknown
Speed
Unknown
Apparent Right ascension
Unknown
Apparent Declination
Unknown
Sunlit
N/A
Visualization observer readout
Local Sidereal Time
08:12:23
Azimuth
Unknown
Elevation
Unknown
Doppler factor
Unknown
Orbital elements
Apogee altitude
806.853 km
Perigee altitude
727.965 km
Semi-major axis
7,145.546 km
Eccentricity
0.00552
Inclination
99.0956°
RAAN
342.1687°
Arg. of periapsis
359.723°
True anomaly
0.39575°
Mean anomaly
0.3914°
Eccentric anomaly
0.39357°
Mean motion
3.59327 °/min
Orbital period
100.19 mins
BSTAR
0.0010452
Loading maneuver chart data...
Computing Atmospheric mass density...

Documentation

Showing up to 5 results
|